DELLINGR (RBLE) (43021 NORAD) Tracking and Keplerian Element Data

This shows tracking and keplerian element data for the satellite.

Feedback or suggestion? Click here.




ElementValue
Catalog43021
NameDELLINGR (RBLE)
Epoch Orbit20359
Epoch Day161.58356675
Epoch Year2021
RAAN216.0033
Inclination51.6049
Eccentricity0.0005565
Argument of Perigee279.2361
Mean Anonmoly80.8041
Mean Motion16.52395905
Decay Rate0.11371101
L11 43021U 98067NJ 21161.58356675 .11371101 12760-4 85574-4 0 9994
L22 43021 51.6049 216.0033 0005565 279.2361 80.8041 16.52395905203598



Live tracking and technical data element details for DELLINGR (RBLE) (NORAD 43021). DELLINGR (RBLE) can be tracked NOW for your location showing map with azimuth and elevation plus other details from your city location.







IsCatalogInMostPopularTable: catalog: 43021, numindb: 737
Update: records affected: 1



GetName: 43021 DELLINGR (RBLE)

Hit Count: updated at: Sat, 17 May 2025 05:46:40 GMT